Biblioteca

Música » Lana Del Rey »

Diet Mountain Dew

32 execuções | Ir para página da faixa

De Terça 24 de abril de 2012 a Quinta 24 de maio de 2012 Todo o tempo

Faixas (32)
Faixa Álbum Duração Data
Diet Mountain Dew 3:43 Mai 22 2012, 14h38
Diet Mountain Dew 3:43 Mai 19 2012, 19h59
Diet Mountain Dew 3:43 Mai 19 2012, 19h48
Diet Mountain Dew 3:43 Mai 18 2012, 3h28
Diet Mountain Dew 3:43 Mai 17 2012, 3h18
Diet Mountain Dew 3:43 Mai 16 2012, 23h43
Diet Mountain Dew 3:43 Mai 16 2012, 23h39
Diet Mountain Dew 3:43 Mai 16 2012, 20h57
Diet Mountain Dew 3:43 Mai 16 2012, 14h42
Diet Mountain Dew 3:43 Mai 16 2012, 12h20
Diet Mountain Dew 3:43 Mai 16 2012, 2h41
Diet Mountain Dew 3:43 Mai 16 2012, 2h29
Diet Mountain Dew 3:43 Mai 15 2012, 20h58
Diet Mountain Dew 3:43 Mai 15 2012, 18h00
Diet Mountain Dew 3:43 Mai 15 2012, 12h17
Diet Mountain Dew 3:43 Mai 14 2012, 20h53
Diet Mountain Dew 3:43 Mai 14 2012, 13h41
Diet Mountain Dew 3:43 Mai 14 2012, 13h05
Diet Mountain Dew 3:43 Mai 14 2012, 10h22
Diet Mountain Dew 3:43 Mai 14 2012, 9h47
Diet Mountain Dew 3:43 Mai 14 2012, 6h19
Diet Mountain Dew 3:43 Mai 13 2012, 22h59
Diet Mountain Dew 3:43 Mai 13 2012, 20h13
Diet Mountain Dew 3:43 Mai 13 2012, 16h45
Diet Mountain Dew 3:43 Mai 12 2012, 10h41
Diet Mountain Dew 3:43 Mai 11 2012, 11h04
Diet Mountain Dew 3:43 Mai 11 2012, 10h46
Diet Mountain Dew 3:43 Mai 10 2012, 14h07
Diet Mountain Dew 3:43 Mai 10 2012, 11h00
Diet Mountain Dew 3:43 Mai 10 2012, 3h11
Diet Mountain Dew 3:43 Mai 3 2012, 14h15
Diet Mountain Dew 3:43 Abr 26 2012, 18h55